Regional Weather Roundup
Issued by NWS

Home | Current Version | Previous Version | Graphics & Text | Print | Product List | Glossary On
Versions: 1 2 3 4 5 6 7 8 9 10 11 12 13 14 15 16 17 18 19 20 21 22 23 24 25 26 27 28 29 30 31 32 33 34 35 36 37 38 39 40 41 42 43 44 45 46 47 48 49 50
000
ASUS43 KLOT 250707
RWRIL

ILLINOIS REGIONAL WEATHER ROUNDUP
NATIONAL WEATHER SERVICE CHICAGO/ROMEOVILLE IL
200 AM CDT SAT MAR 25 2017

NOTE: "FAIR" INDICATES FEW OR NO CLOUDS BELOW 12,000 FEET WITH NO
SIGNIFICANT WEATHER AND/OR OBSTRUCTIONS TO VISIBILITY.

* THESE STATIONS ARE NOT UNDER NWS QUALITY CONTROL. THEY ALSO MAY NOT
  REPORT WEATHER SUCH AS PRECIPITATION OR FOG.

ILZ001-002-007-009-015-016-024-250800-
NORTHWEST ILLINOIS

CITY           SKY/WX    TMP DP  RH WIND       PRES   REMARKS
MOLINE         CLOUDY    47  44  90 E16       29.99R FOG
STERLING*      CLOUDY    41  39  93 E12       30.03S
SAVANNA*       CLOUDY    42  39  89 NE12      30.03F
$$

ILZ003-004-008-010-011-017-018-250800-
NORTH CENTRAL ILLINOIS

CITY           SKY/WX    TMP DP  RH WIND       PRES   REMARKS
ROCKFORD       CLOUDY    40  37  89 NE13      30.05F
FREEPORT*      LGT RAIN  38  37  96 NE15      30.06F WCI  30
ROCHELLE*      CLOUDY    39  38  95 NE16      30.04F WCI  31
DE KALB*       CLOUDY    39  38  94 NE13      30.04F WCI  32
PERU*          CLOUDY    43  38  82 NE12G22   30.04R
$$

ILZ005-006-012>014-019>023-250800-
NORTHEAST ILLINOIS

CITY           SKY/WX    TMP DP  RH WIND       PRES   REMARKS
CHICAGO-OHARE  CLOUDY    42  36  79 NE12      30.07R
CHICAGO-MIDWAY CLOUDY    40  37  89 N17G24    30.08R
AURORA         CLOUDY    43  36  76 NE14      30.06R
LANSING*       CLOUDY    39  38  99 N8        30.07S WCI  33
JOLIET*        CLOUDY    44  40  88 NE10      30.05R
WAUKEGAN       LGT RAIN  37  36  96 N15G23    30.08S FOG     WCI  28
DUPAGE AIRPORT CLOUDY    41  38  89 NE9       30.06R
KANKAKEE*      HVY RAIN  43  41  93 NE10      30.03S
WHEELING       CLOUDY    39  38  96 N10       30.08S WCI  32
MORRIS*        LGT RAIN  43  40  89 NE7       30.04R
ROMEOVILLE*    LGT RAIN  41  40  97 NE17      30.05R
NORTHERLY ISL    N/A     38  36  92 N16         N/A  WCI  29
$$

LMZ740>746-250800-
SOUTHERN LAKE MICHIGAN

STATION/POSITION SKY/WX   TEMP    WIND        PRES    VSBY  WAVE
                          AIR SEA DIR/SP/G                  HT/PER
                          (F)     (DEG/KT/KT) (MB)    (MI)  (FT/S)
HARRISON CRIB                     350/ 19/ 21   N/A
BURNHAM HARBOR                    340/ 14/ 17   N/A
CALUMET HARBOR                    340/ 11/ 19 1017.7R
BURNS HARBOR               39     310/  3/  4 1018.3F
MICHIGAN CITY              38     280/  3/  3   N/A
$$

ILZ025>027-034>036-040-047-049-050-058-095>099-250800-
WEST-CENTRAL ILLINOIS

CITY           SKY/WX    TMP DP  RH WIND       PRES   REMARKS
QUINCY         RAIN      56  55  97 NE12      29.86F FOG
GALESBURG*     CLOUDY    53  53  97 NE7       29.96R FOG
MACOMB*        LGT RAIN  55  54  94 NE13      29.94F
JACKSONVILLE*  TSTM      60  58  92 SE12      29.90F
PITTSFIELD*    RAIN      59  58  97 CALM      29.88F
$$

ILZ028>032-037-038-041>044-048-051>054-059>061-250800-
CENTRAL ILLINOIS

CITY           SKY/WX    TMP DP  RH WIND       PRES   REMARKS
PONTIAC        CLOUDY    47  45  95 NE12      30.00F FOG
BLOOMINGTON    CLOUDY    49  46  90 NE13      29.99S
DECATUR        CLOUDY    62  54  74 S13       29.95F
PEORIA         CLOUDY    51  49  92 E14       29.96F FOG
LACON*         HVY RAIN  45  43  93 NE10      30.00S
LINCOLN*       LGT RAIN  58  56  94 NE3       29.94F
SPRINGFIELD    LGT RAIN  64  57  78 S16       29.91F
TAYLORVILLE    CLOUDY    63  55  77 SE13      29.91F
$$

ILZ033-039-045-046-055>057-062-063-250800-
EAST-CENTRAL ILLINOIS

CITY           SKY/WX    TMP DP  RH WIND       PRES   REMARKS
CHAMPAIGN      CLOUDY    62  52  69 SE10      29.98F
RANTOUL*       CLOUDY    62  56  81 S7        29.98F
MATTOON        MOCLDY    62  53  72 S12       29.97F
PARIS*         CLOUDY    62  54  73 S13       30.01S
$$

ILZ079-100>102-250800-
SOUTHWEST ILLINOIS

CITY           SKY/WX    TMP DP  RH WIND       PRES   REMARKS
ALTON          HVY RAIN  59  58  94 CALM      29.88F
BELLEVILLE     PTCLDY    63  60  89 SE10      29.85F
CAHOKIA*       HVY RAIN  60  57  89 E3        29.87F FOG
SPARTA*        CLOUDY    65  56  70 SE12G20   29.88F
$$

ILZ064>066-069>071-074>076-080>082-084>086-088>090-092>094-250800-
SOUTH-CENTRAL ILLINOIS

CITY           SKY/WX    TMP DP  RH WIND       PRES   REMARKS
CARBONDALE     CLOUDY    65  56  72 SE15G21   29.90F
CAIRO*         MOCLDY    66  56  72 SE14G20   29.92F
EFFINGHAM*     CLOUDY    61  55  81 E10       29.96F
MARION         MOCLDY    66  55  68 S13G20    29.93F
MT. VERNON     CLOUDY    65  55  70 SE10      29.93F
CENTRALIA*     CLOUDY    67  56  69 SE17G24   29.91F
SALEM*         MOCLDY    65  55  69 SE9       29.93F
METROPOLIS*    CLOUDY    67  56  67 SE13G20   29.96F
$$

ILZ067-068-072-073-078-083-087-091-250800-
SOUTHEAST ILLINOIS

CITY           SKY/WX    TMP DP  RH WIND       PRES   REMARKS
LAWRENCEVILLE  CLOUDY    62  53  72 SE13      30.00F
FLORA*         CLOUDY    64  55  72 SE12      29.96F
FAIRFIELD*     CLOUDY    64  55  72 SE9       29.95F
HARRISBURG*    MOCLDY    64  56  75 S14       29.96F
ROBINSON*      CLOUDY    62  53  72 S12G17    30.01F
CARMI*         CLOUDY    62  55  77 SE10      29.98S
$$

ABBREVIATIONS USED IN REMARKS
   TC - TEMPERATURE IN CELSIUS
  WCI - WIND CHILL INDEX
   HX - HEAT INDEX
  VSB - VISIBILITY
$$





USA.gov is the U.S. government's official web portal to all federal, state and local government web resources and services.